Home   Weather   Omaha   Past weeks

Flag for USA Past Weather in Omaha, Nebraska, USA — Yesterday and Last 2 Weeks

Now
28 °F

More clouds than sun.


Feels Like: 21 °F
Forecast: 18 / 31 °F
Wind: 7 mph from Southeast

Location: Millard Airport

Current Time: Dec 10, 2016 at 10:46:20 am

Latest Report: Dec 10, 2016 at 10:15 am


Visibility: 10 mi

Pressure: 30.34 "Hg

Humidity: 70%

Dew Point: 19 °F

Location of OmahaLocation

Past Weather in Omaha — Graph

°F

Omaha Temperature Yesterday

Maximum temperature yesterday: 25 °F (at 11:35 pm)
Minimum temperature yesterday: 10 °F (at 5:55 am)
Average temperature yesterday: 18 °F

High & Low Weather Summary for the Past Weeks

 TemperatureHumidityPressure
High58 °F (Nov 27, 8:55 pm)96% (Nov 26, 11:55 pm)30.66 "Hg (Nov 26, 11:55 pm)
Low10 °F (Dec 9, 5:55 am)37% (Dec 6, 5:35 pm)29.10 "Hg (Nov 28, 1:55 pm)
Average34 °F72%30.01 "Hg
* Reported Nov 25 9:15 am — Dec 10 9:15 am, Omaha, Weather by CustomWeather, © 2016

Note: Actual official high and low records may vary slightly from our data, if they occured in-between our weather recording intervals... More about our weather records

Advertising

Omaha Weather History for the Previous 24 Hours

Scroll right to see more
 ConditionsComfort  
Time TempWeatherWind HumidityBarometerVisibility
9:15 am
Sat, Dec 10
26 °FMostly cloudy.5 mph74%30.36 "Hg10 mi
8:55 am26 °FOvercast.7 mph76%30.36 "Hg10 mi
8:35 am25 °FMore clouds than sun.No wind78%30.37 "Hg10 mi
8:15 am25 °FOvercast.No wind77%30.37 "Hg10 mi
7:55 am25 °FMore clouds than sun.3 mph79%30.38 "Hg10 mi
7:35 am25 °FLight snow. Mostly cloudy.No wind77%30.40 "Hg7 mi
7:15 am25 °FOvercast.No wind77%30.40 "Hg10 mi
6:55 am25 °FLight snow. Overcast.No wind78%30.41 "Hg10 mi
6:15 am25 °FLight snow. Overcast.No wind72%30.42 "Hg4 mi
5:55 am25 °FOvercast.No wind69%30.42 "Hg10 mi
5:35 am25 °FOvercast.No wind69%30.42 "Hg10 mi
5:15 am25 °FOvercast.No wind69%30.43 "Hg10 mi
4:55 am25 °FMostly cloudy.No wind71%30.45 "Hg10 mi
4:35 am25 °FMostly cloudy.No wind71%30.46 "Hg10 mi
4:15 am25 °FPartly cloudy.No wind70%30.46 "Hg10 mi
3:55 am25 °FClear.No wind69%30.47 "Hg10 mi
3:35 am25 °FPassing clouds.No wind68%30.46 "Hg10 mi
3:15 am25 °FOvercast.No wind69%30.46 "Hg10 mi
2:55 am25 °FOvercast.No wind69%30.46 "Hg10 mi
2:35 am25 °FOvercast.No wind69%30.46 "Hg10 mi
2:15 am25 °FOvercast.No wind69%30.47 "Hg10 mi
1:55 am25 °FOvercast.No wind69%30.46 "Hg10 mi
1:35 am25 °FOvercast.3 mph69%30.47 "Hg10 mi
1:15 am25 °FOvercast.3 mph69%30.48 "Hg10 mi
12:55 am25 °FOvercast.No wind68%30.48 "Hg10 mi
12:35 am25 °FOvercast.No wind67%30.48 "Hg10 mi
12:15 am25 °FOvercast.3 mph67%30.48 "Hg10 mi
11:55 pm
Fri, Dec 9
25 °FOvercast.No wind66%30.49 "Hg10 mi
11:35 pm25 °FOvercast.No wind65%30.50 "Hg10 mi
10:55 pm25 °FOvercast.No wind64%30.49 "Hg10 mi
10:15 pm24 °FOvercast.5 mph66%30.49 "Hg10 mi
9:55 pm24 °FOvercast.5 mph66%30.49 "Hg10 mi
9:35 pm24 °FOvercast.3 mph65%30.50 "Hg10 mi
9:15 pm24 °FOvercast.3 mph66%30.50 "Hg10 mi
8:55 pm24 °FOvercast.6 mph64%30.50 "Hg10 mi
8:35 pm24 °FOvercast.3 mph63%30.50 "Hg10 mi
8:15 pm24 °FOvercast.5 mph64%30.51 "Hg10 mi
7:55 pm24 °FOvercast.7 mph65%30.51 "Hg10 mi
7:35 pm24 °FOvercast.3 mph64%30.52 "Hg10 mi
7:15 pm24 °FOvercast.3 mph64%30.52 "Hg10 mi
6:55 pm24 °FOvercast.5 mph63%30.52 "Hg10 mi
6:35 pm24 °FOvercast.5 mph62%30.51 "Hg10 mi
6:15 pm24 °FOvercast.6 mph63%30.51 "Hg10 mi
5:55 pm24 °FOvercast.No wind61%30.51 "Hg10 mi
5:35 pm23 °FOvercast.No wind62%30.51 "Hg10 mi
5:15 pm24 °FOvercast.7 mph63%30.50 "Hg10 mi
4:55 pm24 °FOvercast.5 mph64%30.50 "Hg10 mi
4:35 pm23 °FOvercast.3 mph63%30.51 "Hg10 mi
4:15 pm24 °FOvercast.6 mph63%30.51 "Hg10 mi
3:55 pm24 °FOvercast.3 mph63%30.52 "Hg10 mi
3:35 pm23 °FOvercast.No wind63%30.52 "Hg10 mi
3:15 pm23 °FOvercast.No wind64%30.52 "Hg10 mi
2:55 pm23 °FOvercast.No wind65%30.52 "Hg10 mi
2:35 pm23 °FOvercast.3 mph64%30.53 "Hg10 mi
2:15 pm23 °FOvercast.3 mph64%30.52 "Hg10 mi
1:55 pm22 °FOvercast.6 mph64%30.53 "Hg10 mi
1:35 pm22 °FOvercast.6 mph64%30.54 "Hg10 mi
1:15 pm22 °FOvercast.No wind66%30.55 "Hg10 mi
12:55 pm21 °FOvercast.No wind67%30.55 "Hg10 mi
12:35 pm21 °FOvercast.No wind68%30.56 "Hg10 mi
12:16 pm20 °FOvercast.5 mph67%30.57 "Hg10 mi
11:55 am19 °FOvercast.No wind71%30.58 "Hg10 mi
11:35 am18 °FOvercast.5 mph72%30.59 "Hg10 mi
11:15 am18 °FOvercast.5 mph70%30.61 "Hg10 mi
10:55 am17 °FOvercast.No wind71%30.63 "Hg10 mi
10:35 am16 °FMostly cloudy.3 mph73%30.63 "Hg10 mi
10:15 am16 °FBroken clouds.No wind73%30.64 "Hg10 mi
Weather by CustomWeather, © 2016

See weather overviewHow to use our weather pages